When you browse on this site, cookies collect data to enhance your experience and personalize the content and advertising you see.
Visit our Privacy Policy to learn more. By continuing to use the site, you agree to this use of cookies and data.
  • In United Kingdom
  • List of Countries
  • For 7 days
  • Water Temperature
  • Weather Map
  • Weather Widgets
  • user-avatar
    Login

    Hourly Weather Abano Terme

    Today, 2 June, Tuesday

    Time Temperature Precipitation Wind Pressure Humidity
    00:00 +19°C° 0 mm 1 mps 761 mmHg 63%
    01:00 +18°C° 0 mm 1 mps 761 mmHg 63%
    02:00 +18°C° 0 mm 1 mps 761 mmHg 63%
    03:00 +18°C° 0 mm 1 mps 761 mmHg 63%
    04:00 +18°C° 0 mm 1 mps 760 mmHg 63%
    05:00 +19°C° 0 mm 1 mps 760 mmHg 62%
    06:00 +18°C° 0 mm 0 mps 760 mmHg 62%
    07:00 +19°C° 0 mm 0 mps 760 mmHg 61%
    08:00 +22°C° 0 mm 1 mps 760 mmHg 56%
    09:00 +24°C° 0 mm 1 mps 759 mmHg 51%
    10:00 +25°C° 0 mm 1 mps 759 mmHg 46%
    11:00 +26°C° 0 mm 2 mps 759 mmHg 45%
    12:00 +27°C° 0 mm 2 mps 758 mmHg 43%
    13:00 +28°C° 0 mm 3 mps 758 mmHg 42%
    14:00 +28°C° 0 mm 3 mps 758 mmHg 43%
    15:00 +28°C° 0 mm 3 mps 757 mmHg 44%
    16:00 +28°C° 0 mm 3 mps 757 mmHg 45%
    17:00 +27°C° 0.2 mm 3 mps 756 mmHg 51%
    18:00 +25°C° 0.2 mm 2 mps 756 mmHg 58%
    19:00 +24°C° 0.2 mm 2 mps 756 mmHg 64%
    20:00 +21°C° 0.2 mm 2 mps 756 mmHg 68%
    21:00 +20°C° 0.2 mm 2 mps 757 mmHg 72%
    22:00 +19°C° 0.2 mm 2 mps 757 mmHg 76%
    23:00 +18°C° 0.2 mm 2 mps 757 mmHg 79%

    Tomorrow, 3 June, Wednesday

    Time Temperature Precipitation Wind Pressure Humidity
    00:00 +18°C° 0.2 mm 2 mps 757 mmHg 82%
    01:00 +17°C° 0.2 mm 2 mps 757 mmHg 85%
    02:00 +17°C° 0.1 mm 2 mps 757 mmHg 86%
    03:00 +16°C° 0.1 mm 2 mps 756 mmHg 87%
    04:00 +16°C° 0.1 mm 2 mps 756 mmHg 88%
    05:00 +17°C° 0.1 mm 2 mps 756 mmHg 85%
    06:00 +18°C° 0.1 mm 2 mps 756 mmHg 81%
    07:00 +19°C° 0.1 mm 2 mps 756 mmHg 77%
    08:00 +21°C° 0 mm 2 mps 755 mmHg 73%
    09:00 +23°C° 0 mm 2 mps 755 mmHg 68%
    10:00 +24°C° 0 mm 2 mps 755 mmHg 64%
    11:00 +25°C° 0 mm 2 mps 755 mmHg 61%
    12:00 +25°C° 0 mm 2 mps 754 mmHg 59%
    13:00 +26°C° 0 mm 1 mps 754 mmHg 57%
    14:00 +26°C° 0.3 mm 2 mps 753 mmHg 57%
    15:00 +26°C° 0.3 mm 2 mps 753 mmHg 57%
    16:00 +26°C° 0.3 mm 2 mps 753 mmHg 57%
    17:00 +25°C° 0.8 mm 2 mps 753 mmHg 64%
    18:00 +24°C° 0.8 mm 2 mps 752 mmHg 71%
    19:00 +21°C° 0.8 mm 2 mps 752 mmHg 78%
    20:00 +21°C° 0.8 mm 2 mps 752 mmHg 81%
    21:00 +21°C° 0.8 mm 1 mps 753 mmHg 83%
    22:00 +20°C° 0.8 mm 1 mps 753 mmHg 86%
    23:00 +20°C° 0.2 mm 1 mps 753 mmHg 87%

    Day after tomorrow, 4 June, Thursday

    Time Temperature Precipitation Wind Pressure Humidity
    00:00 +19°C° 0.2 mm 1 mps 752 mmHg 89%
    01:00 +18°C° 0.2 mm 2 mps 752 mmHg 91%
    02:00 +18°C° 0.1 mm 1 mps 752 mmHg 92%
    03:00 +18°C° 0.1 mm 1 mps 751 mmHg 92%
    04:00 +18°C° 0.1 mm 1 mps 751 mmHg 93%
    05:00 +18°C° 0 mm 1 mps 751 mmHg 91%
    06:00 +19°C° 0 mm 1 mps 751 mmHg 89%
    07:00 +19°C° 0 mm 1 mps 750 mmHg 87%
    08:00 +20°C° 0.1 mm 1 mps 750 mmHg 87%
    09:00 +20°C° 0.1 mm 1 mps 750 mmHg 86%
    10:00 +20°C° 0.1 mm 1 mps 750 mmHg 85%
    11:00 +20°C° 1 mm 1 mps 750 mmHg 87%
    12:00 +19°C° 1 mm 1 mps 750 mmHg 89%
    13:00 +18°C° 1 mm 2 mps 750 mmHg 91%
    14:00 +18°C° 2.2 mm 2 mps 749 mmHg 92%
    15:00 +18°C° 2.2 mm 2 mps 749 mmHg 93%
    16:00 +18°C° 2.2 mm 3 mps 748 mmHg 94%
    17:00 +18°C° 1.2 mm 3 mps 748 mmHg 93%
    18:00 +18°C° 1.2 mm 3 mps 747 mmHg 92%
    19:00 +18°C° 1.2 mm 4 mps 747 mmHg 91%
    20:00 +18°C° 0.9 mm 4 mps 746 mmHg 91%
    21:00 +18°C° 0.9 mm 3 mps 746 mmHg 90%
    22:00 +18°C° 0.9 mm 3 mps 746 mmHg 90%
    23:00 +18°C° 2.5 mm 3 mps 745 mmHg 91%

    5 June, Friday

    Time Temperature Precipitation Wind Pressure Humidity
    00:00 +18°C° 2.5 mm 2 mps 745 mmHg 92%
    01:00 +18°C° 2.5 mm 2 mps 745 mmHg 93%
    02:00 +17°C° 0.7 mm 2 mps 745 mmHg 93%
    03:00 +18°C° 0.7 mm 1 mps 745 mmHg 93%
    04:00 +18°C° 0.7 mm 1 mps 745 mmHg 93%
    05:00 +18°C° 0.5 mm 1 mps 745 mmHg 90%
    06:00 +19°C° 0.5 mm 1 mps 746 mmHg 87%
    07:00 +19°C° 0.5 mm 1 mps 746 mmHg 84%
    08:00 +19°C° 1 mm 2 mps 746 mmHg 80%
    09:00 +20°C° 1 mm 2 mps 747 mmHg 76%
    10:00 +21°C° 1 mm 3 mps 747 mmHg 72%
    11:00 +21°C° 0.6 mm 3 mps 747 mmHg 69%
    12:00 +22°C° 0.6 mm 3 mps 747 mmHg 67%
    13:00 +22°C° 0.6 mm 3 mps 748 mmHg 64%
    14:00 +23°C° 0.4 mm 2 mps 748 mmHg 64%
    15:00 +23°C° 0.4 mm 2 mps 748 mmHg 64%
    16:00 +23°C° 0.4 mm 2 mps 748 mmHg 64%
    17:00 +23°C° 0 mm 2 mps 749 mmHg 68%
    18:00 +22°C° 0 mm 1 mps 749 mmHg 71%
    19:00 +22°C° 0 mm 1 mps 750 mmHg 75%
    20:00 +21°C° 0 mm 1 mps 751 mmHg 77%
    21:00 +19°C° 0 mm 1 mps 752 mmHg 79%
    22:00 +18°C° 0 mm 1 mps 753 mmHg 81%
    23:00 +18°C° 0 mm 1 mps 753 mmHg 81%

    6 June, Saturday

    Time Temperature Precipitation Wind Pressure Humidity
    00:00 +18°C° 0 mm 1 mps 753 mmHg 82%
    01:00 +16°C° 0 mm 2 mps 754 mmHg 83%
    02:00 +16°C° 0 mm 2 mps 754 mmHg 84%
    03:00 +16°C° 0 mm 2 mps 754 mmHg 85%
    04:00 +16°C° 0 mm 2 mps 754 mmHg 85%
    05:00 +17°C° 0 mm 2 mps 755 mmHg 83%
    06:00 +18°C° 0 mm 2 mps 755 mmHg 81%
    07:00 +19°C° 0 mm 2 mps 755 mmHg 79%
    08:00 +20°C° 0 mm 2 mps 756 mmHg 75%
    09:00 +21°C° 0 mm 2 mps 756 mmHg 71%
    10:00 +24°C° 0 mm 2 mps 756 mmHg 67%
    11:00 +24°C° 0.3 mm 2 mps 756 mmHg 65%
    12:00 +25°C° 0.3 mm 2 mps 756 mmHg 63%
    13:00 +25°C° 0.3 mm 2 mps 756 mmHg 61%
    14:00 +25°C° 0.9 mm 2 mps 756 mmHg 63%
    15:00 +25°C° 0.9 mm 3 mps 755 mmHg 65%
    16:00 +25°C° 0.9 mm 3 mps 755 mmHg 67%
    17:00 +24°C° 0.8 mm 3 mps 755 mmHg 71%
    18:00 +22°C° 0.8 mm 3 mps 755 mmHg 75%
    19:00 +21°C° 0.8 mm 3 mps 755 mmHg 80%
    20:00 +20°C° 0.1 mm 3 mps 755 mmHg 82%
    21:00 +19°C° 0.1 mm 3 mps 756 mmHg 84%
    22:00 +18°C° 0.1 mm 3 mps 756 mmHg 86%
    23:00 +18°C° 0.1 mm 2 mps 756 mmHg 87%

    7 June, Sunday

    Time Temperature Precipitation Wind Pressure Humidity
    00:00 +18°C° 0.1 mm 2 mps 756 mmHg 88%
    01:00 +18°C° 0.1 mm 2 mps 756 mmHg 88%
    02:00 +17°C° 0.1 mm 2 mps 755 mmHg 89%
    03:00 +18°C° 0.1 mm 1 mps 755 mmHg 90%
    04:00 +18°C° 0.1 mm 1 mps 755 mmHg 91%
    05:00 +18°C° 0 mm 1 mps 755 mmHg 90%
    06:00 +19°C° 0 mm 1 mps 756 mmHg 88%
    07:00 +20°C° 0 mm 1 mps 756 mmHg 86%
    08:00 +20°C° 0.1 mm 2 mps 756 mmHg 80%
    09:00 +23°C° 0.1 mm 2 mps 756 mmHg 74%
    10:00 +24°C° 0.1 mm 2 mps 755 mmHg 68%
    11:00 +23°C° 0.9 mm 2 mps 755 mmHg 73%
    12:00 +23°C° 0.9 mm 2 mps 755 mmHg 78%
    13:00 +21°C° 0.9 mm 2 mps 755 mmHg 83%
    14:00 +21°C° 1 mm 2 mps 755 mmHg 82%
    15:00 +21°C° 1 mm 2 mps 755 mmHg 82%
    16:00 +21°C° 1 mm 2 mps 755 mmHg 82%
    17:00 +21°C° 0.8 mm 2 mps 755 mmHg 83%
    18:00 +20°C° 0.8 mm 2 mps 755 mmHg 84%
    19:00 +21°C° 0.8 mm 1 mps 755 mmHg 86%
    20:00 +20°C° 0.9 mm 2 mps 755 mmHg 86%
    21:00 +19°C° 0.9 mm 2 mps 755 mmHg 87%
    22:00 +19°C° 0.9 mm 2 mps 755 mmHg 88%
    23:00 +19°C° 0.8 mm 2 mps 755 mmHg 88%
    Show more